Find GSAT-2

NORAD ID: 27807 Int'l Des: 2003-018 Owner: ISRO Country: IN operational
HEOCIRCULAR

实时位置

正在加载3D地球...

关于 GSAT-2

正在加载描述...

即将过境

Passes for default location (London). Set your location on the main map for personalized predictions.

高度历史

Loading altitude history...

两行轨道根数

1 27807U 03018A 26131.03756258 -.00000136 00000-0 00000+0 0 9995
2 27807 11.1061 42.0119 0012138 346.1296 206.1556 0.99857270 84069
Epoch: May 11, 2026 • Age: 11 hours

当前状态

高度 35851.7 km
速度 3.07 km/s
星下点 -1.51°S, 8.57°W
发射日期 May 8, 2003
运行时间 23 years
类型 other

技术详情

分类 Payload
质量 1800.00 kg
干质量 840.00 kg
总质量 1800.00 kg
长度 2.40 m
直径 1.60 m
跨度 9.60 m
形状 Box + 2 Pan
制造商 ISRO
平台类型 I2K
阶段状态 In Orbit
所有者/国家 ISRO/IN

Most Searched